[[{"header":{"parameterUnit":"m.s-1","parameterCategory":2,"la1":30.2991,"la2":30.254,"lo1":-89.0895,"lo2":-89.0444,"dy":0.0017,"dx":0.0017,"nx":28,"ny":28,"refTime":"2025-06-20T21:00:00:Z","depth":"0","parameterNumber":2,"parameterNumberName":"U-component_of_CURRENTS"},"data":[0,0,0,0,0,0,0,0,0,0,0,0,0,0,0,0,0,0,0,0,0,0,0,0,0,0,0,0,0,0,0,0,0,0,0,0,0,0,0,0,0,0,0,0,0,0,0,0,0,0,0,0,0,0,0,0,0,0,-0.0311,-0.0312,0,-0.0406,-0.0407,-0.0409,-0.0383,-0.0381,-0.0379,-0.0377,-0.0296,-0.0296,-0.0295,0,0,0,0,0,0,0,0,0,0,0,0,0,-0.0226,-0.0227,-0.0311,-0.0312,-0.0313,-0.0406,-0.0408,-0.0409,-0.0383,-0.0381,-0.0379,-0.0376,-0.0296,-0.0296,-0.0295,0,0,0,0,0,0,0,0,0,0,0,0,0,-0.0286,-0.0227,-0.0311,-0.0312,-0.0313,-0.0406,-0.0408,-0.0409,-0.0384,-0.0381,-0.0378,-0.0375,-0.0296,-0.0296,-0.0295,-0.0349,0,0,-0.0293,-0.0293,0,0,0,0,0,0,0,0,-0.0282,-0.0289,-0.031,-0.0312,-0.0313,-0.038,-0.0348,-0.038,-0.0384,-0.0357,-0.0377,-0.0374,-0.031,-0.0308,-0.0335,-0.0345,-0.0342,-0.0293,-0.0293,-0.0293,-0.0293,0,0,0,0,0,0,0,-0.0278,-0.0285,-0.0348,-0.0312,-0.0314,-0.0349,-0.0353,-0.0355,-0.0345,-0.0359,-0.0357,-0.0369,-0.0309,-0.0336,-0.0332,-0.034,-0.0293,-0.0293,-0.0292,-0.0292,-0.033,-0.0332,0,0,0,0,0,0,-0.0264,-0.0281,-0.0345,-0.0351,-0.0291,-0.0352,-0.0357,-0.0361,-0.0348,-0.0345,-0.0371,-0.0368,-0.0338,-0.0333,-0.0329,-0.0299,-0.0293,-0.0292,-0.0292,-0.0329,-0.0331,-0.0332,0,0,0,0,0,0,-0.0261,-0.0268,-0.0342,-0.0319,-0.033,-0.0355,-0.0362,-0.0365,-0.037,-0.036,-0.0353,-0.037,-0.0336,-0.033,-0.0308,-0.0298,-0.0292,-0.0291,-0.0327,-0.0329,-0.0331,-0.0297,0,0,0,0,0,0,-0.0258,-0.0267,-0.0265,-0.0318,-0.0331,-0.0372,-0.0364,-0.0369,-0.0383,-0.0378,-0.0358,-0.0349,-0.0333,-0.0309,-0.0307,-0.0297,-0.0291,-0.0326,-0.0328,-0.0331,-0.0297,-0.0298,-0.0299,0,0,0,0,0,-0.0255,-0.0273,-0.0265,-0.0273,-0.0328,-0.0372,-0.0382,-0.0391,-0.0385,-0.0386,-0.037,-0.0348,-0.0324,-0.0309,-0.0307,-0.0297,-0.0324,-0.0327,-0.033,-0.0296,-0.0298,-0.0299,0,0,0,0,0,0,-0.0237,-0.0274,-0.0265,-0.0291,-0.0313,-0.0366,-0.0377,-0.0391,-0.0389,-0.0361,-0.0359,-0.0349,-0.0327,-0.0333,-0.0317,-0.0323,-0.0325,-0.0327,-0.03,-0.0301,-0.0302,-0.0306,-0.029,0,0,0,0,0,-0.0233,-0.0245,-0.0282,-0.0295,-0.0305,-0.034,-0.036,-0.0354,-0.0366,-0.0363,-0.0371,-0.0364,-0.0351,-0.0337,-0.0334,-0.0337,-0.0325,-0.0336,-0.0337,-0.0338,-0.0345,-0.034,-0.034,-0.0342,-0.0342,-0.0342,0,0,-0.0229,-0.0249,-0.0255,-0.029,-0.0308,-0.0324,-0.0343,-0.0351,-0.0359,-0.0352,-0.0369,-0.0362,-0.0353,-0.0346,-0.0339,-0.0339,-0.0325,-0.0342,-0.0341,-0.0348,-0.0343,-0.0342,-0.0341,-0.0344,-0.0344,-0.0343,0,0,-0.0226,-0.0241,-0.0244,-0.027,-0.0283,-0.03,-0.0298,-0.0343,-0.035,-0.0363,-0.0356,-0.0349,-0.036,-0.0352,-0.0345,-0.0361,-0.033,-0.0363,-0.0365,-0.0359,-0.0358,-0.0357,-0.0302,-0.0296,-0.0364,-0.0364,-0.0364,0,-0.0214,-0.0229,-0.0252,-0.0267,-0.0289,-0.0286,-0.0296,-0.0312,-0.0346,-0.0354,-0.0351,-0.0376,-0.0364,-0.0351,-0.0355,-0.0358,-0.0337,-0.0348,-0.0356,-0.0356,-0.0355,-0.0299,-0.0293,-0.0363,-0.0363,-0.0363,-0.0363,0,-0.0222,-0.023,-0.0239,-0.0248,-0.027,-0.0278,-0.0299,-0.0304,-0.0313,-0.0337,-0.0342,-0.0348,-0.036,-0.0361,-0.0355,-0.0354,-0.033,-0.0351,-0.0341,-0.0352,-0.0293,-0.0287,-0.0361,-0.0361,-0.0362,-0.0362,0,0,-0.0218,-0.0236,-0.0239,-0.024,-0.0262,-0.0279,-0.0278,-0.0291,-0.0292,-0.0317,-0.0336,-0.0337,-0.0348,-0.0346,-0.0348,-0.0351,-0.0312,-0.035,-0.035,-0.0273,-0.0258,-0.0153,-0.0137,-0.033,-0.033,-0.033,-0.0202,0,-0.0213,-0.0217,-0.0243,-0.0252,-0.0257,-0.0271,-0.0286,-0.0288,-0.0295,-0.0313,-0.0311,-0.032,-0.0339,-0.0332,-0.034,-0.0334,-0.0304,-0.0343,-0.028,-0.0277,-0.0165,-0.013,-0.0085,0.0039,-0.0196,-0.0195,-0.0195,0,-0.0225,-0.0223,-0.0223,-0.0246,-0.0255,-0.0264,-0.0274,-0.0289,-0.029,-0.0297,-0.0298,-0.0301,-0.0302,-0.0317,-0.0298,-0.0321,-0.0282,-0.0272,-0.0267,-0.0183,-0.0164,-0.0,0.0058,-0.0047,-0.0186,-0.0187,-0.0187,0,-0.0207,-0.0224,-0.0214,-0.023,-0.0249,-0.0256,-0.0266,-0.0277,-0.0279,-0.028,-0.0262,-0.028,-0.0272,-0.0263,-0.0237,-0.0264,-0.0198,-0.023,-0.0085,-0.0075,-0.0032,-0.0018,-0.0054,-0.0187,-0.0187,-0.0188,-0.0188,0,-0.0214,-0.0216,-0.0203,-0.021,-0.0211,-0.0243,-0.0242,-0.0257,-0.0254,-0.0247,-0.0253,-0.0237,-0.0262,-0.0225,-0.0211,-0.0116,-0.0167,-0.0064,-0.0038,-0.0014,-0.0002,-0.009,-0.0196,-0.0183,-0.0184,-0.0185,-0.0186,0,-0.0215,-0.0199,-0.0199,-0.0204,-0.0202,-0.0211,-0.0216,-0.0211,-0.0214,-0.0195,-0.0185,-0.019,-0.0149,-0.0125,-0.0097,-0.0055,-0.0007,0.0066,0.0125,0.0157,0.0192,0.0086,0.0112,0.0123,0.0246,0.0249,0.0252,0,-0.0214,-0.02,-0.019,-0.0174,-0.018,-0.0178,-0.0169,-0.0184,-0.0177,-0.0166,-0.0152,-0.0101,-0.006,0.0052,0.0126,0.0232,0.0124,0.0355,0.0304,0.0221,0.0121,0.0058,0.0059,0.0389,0.0393,0.0396,0.0398,0,-0.0206,-0.0194,-0.0186,-0.0151,-0.0137,-0.0128,-0.0122,-0.0103,-0.0118,-0.0091,-0.007,-0.0033,0.0089,0.0207,0.0368,0.0419,0.0288,0.0425,0.0295,0.0204,0.0172,0.0188,0.03,0.0425,0.0422,0.042,0.0419,0.0418,-0.0191,-0.0174,-0.0137,-0.0114,-0.01,-0.008,-0.0053,-0.0043,-0.0015,0.0032,0.0015,0.0112,0.0258,0.0482,0.0499,0.057,0.0502,0.0558,0.0437,0.0386,0.0379,0.059,0.0763,0.0762,0.0762,0.0761,0.0761,0,-0.0151,-0.0117,-0.0092,-0.0056,-0.0041,-0.0045,-0.0014,0.0029,0.0077,0.0123,0.0169,0.0359,0.0498,0.0575,0.0693,0.0598,0.0539,0.0498,0.0355,0.0359,0.0518,0.0503,0.0679,0.0679,0.0679,0.0679,0.068,0.068,-0.0119,-0.0068,-0.0048,0.0008,0.0021,0.0066,0.0092,0.0149,0.0206,0.0337,0.0446,0.0515,0.0595,0.0535,0.0454,0.0413,0.0252,0.0239,0.0161,0.0163,0.0156,0.015,0.0112,0.0203,0.0202,0.0073,0.0071,0.0069]},{"header":{"parameterUnit":"m.s-1","parameterCategory":2,"la1":30.2991,"la2":30.254,"lo1":-89.0895,"lo2":-89.0444,"dy":0.0017,"dx":0.0017,"nx":28,"ny":28,"refTime":"2025-06-20T21:00:00:Z","depth":"0","parameterNumber":3,"parameterNumberName":"V-component_of_CURRENTS"},"data":[0,0,0,0,0,0,0,0,0,0,0,0,0,0,0,0,0,0,0,0,0,0,0,0,0,0,0,0,0,0,0,0,0,0,0,0,0,0,0,0,0,0,0,0,0,0,0,0,0,0,0,0,0,0,0,0,0,0,-0.0131,-0.0132,0,-0.0161,-0.0161,-0.0161,-0.0101,-0.0099,-0.0098,-0.0096,-0.0104,-0.0106,-0.0107,0,0,0,0,0,0,0,0,0,0,0,0,0,-0.0017,-0.0019,-0.0131,-0.0132,-0.0133,-0.0161,-0.0161,-0.0161,-0.0101,-0.0099,-0.0097,-0.0095,-0.0103,-0.0105,-0.0107,0,0,0,0,0,0,0,0,0,0,0,0,0,-0.0056,-0.002,-0.0131,-0.0108,-0.0107,-0.0161,-0.0161,-0.0161,-0.0102,-0.0099,-0.0097,-0.0094,-0.0103,-0.0105,-0.0108,-0.0175,0,0,-0.0116,-0.0117,0,0,0,0,0,0,0,0,-0.0054,-0.006,-0.0111,-0.011,-0.0108,-0.0127,-0.0123,-0.0166,-0.0102,-0.0101,-0.0096,-0.0093,-0.0113,-0.0115,-0.0122,-0.0176,-0.0176,-0.0116,-0.0118,-0.0119,-0.012,0,0,0,0,0,0,0,-0.0051,-0.0058,-0.014,-0.0112,-0.011,-0.0094,-0.0097,-0.0131,-0.0118,-0.0101,-0.0097,-0.0106,-0.0112,-0.012,-0.0122,-0.0176,-0.0116,-0.0119,-0.012,-0.0121,-0.0248,-0.0249,0,0,0,0,0,0,-0.0057,-0.0056,-0.0139,-0.0141,-0.0077,-0.0099,-0.0101,-0.0121,-0.0118,-0.0116,-0.0108,-0.0103,-0.0117,-0.0119,-0.0122,-0.0174,-0.0119,-0.0121,-0.0123,-0.0246,-0.0248,-0.025,0,0,0,0,0,0,-0.0055,-0.0065,-0.0138,-0.01,-0.0109,-0.0104,-0.0126,-0.0123,-0.012,-0.0125,-0.0121,-0.0107,-0.0115,-0.0118,-0.0166,-0.0174,-0.0123,-0.0125,-0.0244,-0.0246,-0.0249,-0.0295,0,0,0,0,0,0,-0.0052,-0.0064,-0.0082,-0.0102,-0.0111,-0.0175,-0.0129,-0.0126,-0.0132,-0.0125,-0.0124,-0.0122,-0.0113,-0.0162,-0.0169,-0.0177,-0.0127,-0.0242,-0.0245,-0.0248,-0.0291,-0.0299,-0.0305,0,0,0,0,0,-0.0048,-0.0088,-0.0083,-0.0093,-0.0136,-0.0177,-0.0181,-0.0165,-0.0134,-0.0149,-0.0154,-0.0121,-0.0186,-0.0167,-0.0174,-0.0183,-0.024,-0.0244,-0.0248,-0.0288,-0.0297,-0.0305,0,0,0,0,0,0,-0.005,-0.0087,-0.0081,-0.013,-0.0152,-0.0167,-0.0182,-0.0172,-0.0187,-0.0175,-0.0164,-0.0166,-0.0204,-0.0202,-0.0181,-0.023,-0.02,-0.0206,-0.0228,-0.0237,-0.0244,-0.0227,-0.0129,0,0,0,0,0,-0.0062,-0.0099,-0.0125,-0.0165,-0.0174,-0.0177,-0.019,-0.0183,-0.02,-0.02,-0.0209,-0.0215,-0.0231,-0.024,-0.026,-0.0305,-0.0258,-0.031,-0.0317,-0.0323,-0.0316,-0.0291,-0.0294,-0.0263,-0.0263,-0.0263,0,0,-0.0071,-0.0101,-0.0118,-0.0167,-0.0176,-0.0202,-0.0177,-0.0203,-0.0216,-0.0205,-0.0236,-0.0249,-0.0252,-0.0291,-0.0306,-0.0286,-0.03,-0.0328,-0.0332,-0.0322,-0.0295,-0.0298,-0.03,-0.0265,-0.0265,-0.0264,0,0,-0.011,-0.0135,-0.0169,-0.0191,-0.0219,-0.0227,-0.0235,-0.0259,-0.0256,-0.0302,-0.0286,-0.0314,-0.0348,-0.0351,-0.0353,-0.0418,-0.0343,-0.0417,-0.0435,-0.0412,-0.0414,-0.0414,-0.0319,-0.0311,-0.0415,-0.0415,-0.0415,0,-0.0118,-0.0166,-0.0186,-0.0221,-0.0237,-0.0237,-0.0265,-0.0276,-0.0314,-0.0318,-0.0313,-0.036,-0.0371,-0.0396,-0.0416,-0.043,-0.0379,-0.0399,-0.0418,-0.0418,-0.0418,-0.0321,-0.0311,-0.0418,-0.0417,-0.0417,-0.0417,0,-0.0174,-0.0207,-0.0231,-0.0269,-0.0293,-0.0324,-0.0337,-0.0354,-0.0352,-0.0361,-0.0394,-0.0424,-0.044,-0.0452,-0.0454,-0.0466,-0.0413,-0.0431,-0.0389,-0.0423,-0.0319,-0.0308,-0.0421,-0.042,-0.042,-0.0419,0,0,-0.0199,-0.0257,-0.0263,-0.0277,-0.0318,-0.0342,-0.0363,-0.0385,-0.0381,-0.0422,-0.0429,-0.0476,-0.048,-0.0484,-0.0494,-0.0483,-0.0438,-0.0458,-0.0456,-0.0347,-0.0324,-0.0295,-0.0279,-0.0456,-0.0456,-0.0455,-0.0235,0,-0.0229,-0.0297,-0.0318,-0.0362,-0.0388,-0.039,-0.0402,-0.0417,-0.0429,-0.0443,-0.0457,-0.0474,-0.0493,-0.0498,-0.0499,-0.0474,-0.0418,-0.0491,-0.032,-0.0313,-0.0272,-0.0271,-0.0236,-0.0039,-0.0224,-0.0222,-0.0221,0,-0.0265,-0.0309,-0.0364,-0.0388,-0.0395,-0.042,-0.0427,-0.044,-0.0447,-0.0449,-0.0473,-0.0478,-0.049,-0.0493,-0.0432,-0.0476,-0.0391,-0.0352,-0.0343,-0.0294,-0.0268,-0.0045,-0.0012,0.0084,-0.0203,-0.0205,-0.0206,0,-0.0268,-0.0328,-0.0373,-0.039,-0.0425,-0.0433,-0.044,-0.0446,-0.0443,-0.0454,-0.0451,-0.0467,-0.0465,-0.0411,-0.0351,-0.0378,-0.0247,-0.0271,-0.0138,-0.0131,-0.0057,-0.0046,0.0098,-0.0171,-0.0171,-0.0172,-0.0173,0,-0.0292,-0.0315,-0.0378,-0.0404,-0.0422,-0.0441,-0.045,-0.0445,-0.0448,-0.0446,-0.0458,-0.0459,-0.0448,-0.0387,-0.0321,-0.0198,-0.0211,-0.0121,-0.0086,-0.0069,-0.0063,0.0057,0.0073,-0.0164,-0.0165,-0.0167,-0.0168,0,-0.0274,-0.0322,-0.0362,-0.0414,-0.0428,-0.0435,-0.0449,-0.0446,-0.0445,-0.0444,-0.0441,-0.0437,-0.0365,-0.0302,-0.0194,-0.0145,0.0037,0.0038,0.0088,0.0122,0.0286,0.0296,0.0463,0.0545,0.0213,0.0215,0.0216,0,-0.0268,-0.03,-0.0365,-0.0385,-0.041,-0.0432,-0.0435,-0.0441,-0.0446,-0.0432,-0.0429,-0.0363,-0.0324,-0.015,-0.005,0.0121,0.0174,0.0277,0.0203,0.0318,0.0357,0.0342,0.0397,0.0324,0.0326,0.0328,0.033,0,-0.0252,-0.0279,-0.0315,-0.0363,-0.0388,-0.0407,-0.0426,-0.0429,-0.0429,-0.0418,-0.0389,-0.0351,-0.0204,-0.0068,0.0135,0.0241,0.0332,0.032,0.0415,0.0437,0.0455,0.0543,0.0206,0.0346,0.0345,0.0343,0.0342,0.0342,-0.0223,-0.0233,-0.029,-0.0329,-0.0355,-0.0377,-0.0381,-0.0393,-0.0383,-0.0344,-0.0336,-0.0243,-0.0073,0.0177,0.0299,0.0548,0.0491,0.0615,0.0627,0.0609,0.0644,0.0366,0.0531,0.0531,0.053,0.053,0.0529,0,-0.0182,-0.0213,-0.0252,-0.03,-0.032,-0.0345,-0.0366,-0.0353,-0.0332,-0.0277,-0.0223,-0.0015,0.02,0.0397,0.0693,0.0835,0.0862,0.0909,0.0906,0.0954,0.0712,0.0669,0.0898,0.0898,0.0898,0.0898,0.0897,0.0897,-0.0159,-0.019,-0.0224,-0.0265,-0.029,-0.0295,-0.0299,-0.0269,-0.0231,-0.0097,0.0026,0.0128,0.0393,0.0743,0.1057,0.111,0.1215,0.118,0.1248,0.1075,0.1048,0.1023,0.0988,0.128,0.128,0.1499,0.1501,0.1502]}],[{"header":{"parameterUnit":"m.s-1","parameterCategory":2,"la1":30.2991,"la2":30.254,"lo1":-89.0895,"lo2":-89.0444,"dy":0.0017,"dx":0.0017,"nx":28,"ny":28,"refTime":"2025-06-20T21:00:00:Z","depth":"2","parameterNumber":2,"parameterNumberName":"U-component_of_CURRENTS"},"data":[0,0,0,0,0,0,0,0,0,0,0,0,0,0,0,0,0,0,0,0,0,0,0,0,0,0,0,0,0,0,0,0,0,0,0,0,0,0,0,0,0,0,0,0,0,0,0,0,0,0,0,0,0,0,0,0,0,0,-0.2351,-0.2351,0,-0.2265,-0.2264,-0.2263,-0.2217,-0.2218,-0.2218,-0.2218,-0.2189,-0.2188,-0.2187,0,0,0,0,0,0,0,0,0,0,0,0,0,-0.2455,-0.2454,-0.2351,-0.2351,-0.235,-0.2265,-0.2264,-0.2262,-0.2217,-0.2218,-0.2218,-0.2218,-0.219,-0.2189,-0.2187,0,0,0,0,0,0,0,0,0,0,0,0,0,-0.2391,-0.2453,-0.2352,-0.2319,-0.2316,-0.2266,-0.2264,-0.2262,-0.2217,-0.2218,-0.2218,-0.2218,-0.219,-0.2189,-0.2187,-0.2173,0,0,-0.2183,-0.2182,0,0,0,0,0,0,0,0,-0.2395,-0.2387,-0.2325,-0.2321,-0.2317,-0.2255,-0.229,-0.2236,-0.2217,-0.2252,-0.2218,-0.2218,-0.2218,-0.2214,-0.2193,-0.2172,-0.217,-0.2183,-0.2182,-0.2181,-0.2181,0,0,0,0,0,0,0,-0.2399,-0.2391,-0.2314,-0.2324,-0.2319,-0.2302,-0.2293,-0.2279,-0.2233,-0.2249,-0.2246,-0.2241,-0.2216,-0.2194,-0.2192,-0.217,-0.2183,-0.2182,-0.2181,-0.218,-0.2109,-0.2108,0,0,0,0,0,0,-0.2416,-0.2395,-0.2317,-0.2312,-0.2361,-0.23,-0.229,-0.2272,-0.2232,-0.2227,-0.2241,-0.2239,-0.2196,-0.2194,-0.2191,-0.2138,-0.2181,-0.218,-0.2179,-0.211,-0.2109,-0.2108,0,0,0,0,0,0,-0.2419,-0.241,-0.2321,-0.2355,-0.2342,-0.2298,-0.2279,-0.227,-0.2241,-0.2226,-0.2221,-0.222,-0.2197,-0.2193,-0.2165,-0.2138,-0.2179,-0.2178,-0.2111,-0.211,-0.2108,-0.2055,0,0,0,0,0,0,-0.2422,-0.2411,-0.2398,-0.2355,-0.2341,-0.2276,-0.2278,-0.2269,-0.2239,-0.2236,-0.2206,-0.2204,-0.2196,-0.2167,-0.2163,-0.2137,-0.2177,-0.2113,-0.2111,-0.2109,-0.2058,-0.2052,-0.2046,0,0,0,0,0,-0.2425,-0.2406,-0.2398,-0.2388,-0.2327,-0.2275,-0.2265,-0.2234,-0.2238,-0.2211,-0.2197,-0.2205,-0.2152,-0.2165,-0.2161,-0.2134,-0.2114,-0.2111,-0.2109,-0.2061,-0.2053,-0.2046,0,0,0,0,0,0,-0.2438,-0.2398,-0.2389,-0.2356,-0.2314,-0.2268,-0.2242,-0.223,-0.2195,-0.2197,-0.2189,-0.2184,-0.2149,-0.2152,-0.2166,-0.2108,-0.2135,-0.2132,-0.21,-0.2092,-0.2087,-0.208,-0.2176,0,0,0,0,0,-0.2439,-0.2411,-0.2371,-0.234,-0.2321,-0.2282,-0.2259,-0.2239,-0.2208,-0.2192,-0.2173,-0.2158,-0.2136,-0.2124,-0.2105,-0.2074,-0.2047,-0.2056,-0.205,-0.2045,-0.2038,-0.1978,-0.1966,-0.21,-0.21,-0.21,0,0,-0.2436,-0.2409,-0.2394,-0.2341,-0.2307,-0.2261,-0.2266,-0.2224,-0.2185,-0.2197,-0.2139,-0.2136,-0.2124,-0.2084,-0.2069,-0.2082,-0.1986,-0.2042,-0.2038,-0.2033,-0.1974,-0.1961,-0.1949,-0.2098,-0.2099,-0.2099,0,0,-0.2404,-0.2389,-0.2351,-0.2316,-0.2268,-0.2243,-0.2232,-0.2183,-0.2157,-0.2111,-0.211,-0.2087,-0.2055,-0.2032,-0.2021,-0.1974,-0.1958,-0.1977,-0.1938,-0.188,-0.1868,-0.1858,-0.1776,-0.1759,-0.1973,-0.1973,-0.1973,0,-0.2402,-0.2347,-0.233,-0.2281,-0.225,-0.2235,-0.2184,-0.2151,-0.2099,-0.2078,-0.2088,-0.203,-0.2024,-0.1972,-0.1957,-0.1958,-0.192,-0.1965,-0.1871,-0.186,-0.185,-0.177,-0.1751,-0.197,-0.197,-0.1971,-0.1971,0,-0.2334,-0.2293,-0.2266,-0.2202,-0.2167,-0.2122,-0.2085,-0.2052,-0.2037,-0.2009,-0.1959,-0.1945,-0.1917,-0.1909,-0.1919,-0.1849,-0.1841,-0.187,-0.1886,-0.1833,-0.1752,-0.1733,-0.1966,-0.1967,-0.1968,-0.1968,0,0,-0.2312,-0.2236,-0.2224,-0.2185,-0.2125,-0.2088,-0.2034,-0.1974,-0.1942,-0.1903,-0.1852,-0.1819,-0.183,-0.1819,-0.1826,-0.1779,-0.167,-0.1796,-0.1794,-0.171,-0.1516,-0.1541,-0.1524,-0.1685,-0.1682,-0.168,-0.1477,0,-0.2257,-0.217,-0.2144,-0.2058,-0.2008,-0.1988,-0.1937,-0.1893,-0.1867,-0.1818,-0.18,-0.1763,-0.1789,-0.1785,-0.1738,-0.1707,-0.1625,-0.1721,-0.1586,-0.1581,-0.1606,-0.1505,-0.1432,-0.125,-0.1459,-0.1456,-0.1454,0,-0.2184,-0.214,-0.2057,-0.1987,-0.1964,-0.1922,-0.186,-0.1813,-0.176,-0.1745,-0.1714,-0.1707,-0.1648,-0.168,-0.1557,-0.1621,-0.1553,-0.1514,-0.1506,-0.1539,-0.1573,-0.1343,-0.1209,-0.1423,-0.1426,-0.1428,-0.143,0,-0.2157,-0.2072,-0.2011,-0.1983,-0.1909,-0.1878,-0.1844,-0.1793,-0.1749,-0.1706,-0.1678,-0.1623,-0.1588,-0.1514,-0.1457,-0.1496,-0.1307,-0.1352,-0.1286,-0.1286,-0.1202,-0.1201,-0.1214,-0.1214,-0.1214,-0.1215,-0.1216,0,-0.2095,-0.2041,-0.2001,-0.196,-0.1897,-0.186,-0.1794,-0.1765,-0.1711,-0.1655,-0.1646,-0.1602,-0.1546,-0.1453,-0.1403,-0.1287,-0.1254,-0.1244,-0.1229,-0.1181,-0.1181,-0.1335,-0.1352,-0.1207,-0.1209,-0.1211,-0.1212,0,-0.2049,-0.2023,-0.195,-0.1892,-0.1875,-0.1833,-0.1764,-0.1714,-0.1685,-0.1615,-0.1599,-0.1545,-0.1446,-0.1361,-0.1227,-0.1208,-0.1107,-0.106,-0.1003,-0.0988,-0.1127,-0.1144,-0.0957,-0.0956,-0.0955,-0.0954,-0.0954,0,-0.2008,-0.1968,-0.191,-0.1874,-0.1844,-0.1788,-0.1741,-0.1705,-0.1661,-0.1587,-0.1548,-0.1443,-0.1393,-0.1212,-0.1132,-0.0999,-0.1015,-0.0851,-0.0929,-0.1093,-0.1097,-0.1115,-0.1132,-0.0763,-0.0761,-0.0759,-0.0758,0,-0.1931,-0.1922,-0.1873,-0.1806,-0.1759,-0.1702,-0.1649,-0.162,-0.1574,-0.1537,-0.1484,-0.1446,-0.1295,-0.1158,-0.0997,-0.0918,-0.0888,-0.0818,-0.0943,-0.0887,-0.0907,-0.0915,-0.0937,-0.0743,-0.0744,-0.0745,-0.0746,-0.0747,-0.188,-0.1839,-0.1782,-0.1711,-0.1662,-0.1608,-0.1551,-0.1524,-0.1475,-0.1391,-0.1411,-0.1283,-0.1193,-0.0937,-0.0838,-0.0726,-0.0816,-0.0742,-0.0747,-0.0754,-0.0815,-0.0838,-0.0668,-0.0669,-0.067,-0.0671,-0.0672,0,-0.1795,-0.1744,-0.1679,-0.1593,-0.1519,-0.1517,-0.1463,-0.1418,-0.137,-0.1285,-0.1241,-0.0992,-0.0888,-0.0755,-0.0613,-0.0603,-0.0585,-0.0521,-0.0503,-0.0519,-0.0534,-0.0584,-0.0375,-0.0374,-0.0372,-0.0371,0,0,-0.1745,-0.1658,-0.162,-0.1471,-0.1407,-0.131,-0.1276,-0.1243,-0.1175,-0.103,-0.0885,-0.0874,-0.0793,-0.0588,-0.0547,-0.0453,-0.0477,-0.0406,-0.0651,-0.0651,-0.0664,-0.0672,-0.077,0,0,0,0,0]},{"header":{"parameterUnit":"m.s-1","parameterCategory":2,"la1":30.2991,"la2":30.254,"lo1":-89.0895,"lo2":-89.0444,"dy":0.0017,"dx":0.0017,"nx":28,"ny":28,"refTime":"2025-06-20T21:00:00:Z","depth":"2","parameterNumber":3,"parameterNumberName":"V-component_of_CURRENTS"},"data":[0,0,0,0,0,0,0,0,0,0,0,0,0,0,0,0,0,0,0,0,0,0,0,0,0,0,0,0,0,0,0,0,0,0,0,0,0,0,0,0,0,0,0,0,0,0,0,0,0,0,0,0,0,0,0,0,0,0,0.0363,0.0365,0,0.0517,0.0518,0.052,0.0566,0.0565,0.0565,0.0564,0.0684,0.0688,0.0692,0,0,0,0,0,0,0,0,0,0,0,0,0,0.0095,0.0099,0.0363,0.0365,0.0367,0.0516,0.0518,0.052,0.0566,0.0565,0.0565,0.0564,0.0683,0.0688,0.0692,0,0,0,0,0,0,0,0,0,0,0,0,0,0.0224,0.0101,0.0362,0.0409,0.0415,0.0516,0.0518,0.0521,0.0566,0.0565,0.0564,0.0564,0.0682,0.0687,0.0693,0.0746,0,0,0.071,0.0713,0,0,0,0,0,0,0,0,0.0217,0.0234,0.04,0.0406,0.0413,0.0523,0.0468,0.0595,0.0567,0.0507,0.0564,0.0563,0.0629,0.0639,0.0668,0.0752,0.0757,0.0711,0.0714,0.0716,0.0718,0,0,0,0,0,0,0,0.0208,0.0227,0.0422,0.0403,0.041,0.0417,0.0435,0.0492,0.0569,0.0512,0.0516,0.0536,0.0632,0.0662,0.0671,0.0759,0.071,0.0715,0.0719,0.0721,0.084,0.0839,0,0,0,0,0,0,0.0195,0.022,0.0417,0.0427,0.0312,0.0423,0.0443,0.0487,0.057,0.0582,0.0537,0.0538,0.0653,0.0664,0.0675,0.0704,0.0716,0.0722,0.0725,0.084,0.0839,0.0839,0,0,0,0,0,0,0.0189,0.0212,0.0411,0.0326,0.0352,0.0429,0.0478,0.0491,0.0505,0.0589,0.0601,0.0537,0.0653,0.0667,0.0714,0.071,0.0724,0.0729,0.084,0.084,0.0839,0.0787,0,0,0,0,0,0,0.0181,0.021,0.022,0.0326,0.0356,0.0452,0.048,0.0494,0.0521,0.0523,0.0593,0.0605,0.0653,0.0705,0.0719,0.0718,0.0734,0.084,0.084,0.0839,0.0789,0.0785,0.0781,0,0,0,0,0,0.0172,0.0194,0.0221,0.0243,0.0375,0.0452,0.0467,0.0517,0.0521,0.0525,0.0574,0.0601,0.0711,0.071,0.0727,0.0727,0.0841,0.084,0.084,0.0791,0.0786,0.0781,0,0,0,0,0,0,0.0091,0.0204,0.0235,0.0293,0.0357,0.0459,0.0466,0.0504,0.0549,0.0538,0.0612,0.0627,0.0664,0.0702,0.0698,0.0757,0.0776,0.0778,0.0733,0.0729,0.0725,0.0707,0.0739,0,0,0,0,0,0.0079,0.0119,0.0226,0.0267,0.0292,0.0373,0.0404,0.0439,0.0502,0.0519,0.0577,0.0628,0.0681,0.0706,0.0756,0.0797,0.0825,0.0803,0.0799,0.0795,0.0791,0.083,0.0829,0.0837,0.0837,0.0837,0,0,0.0062,0.0125,0.0151,0.0249,0.0298,0.0339,0.0388,0.0424,0.0457,0.0526,0.057,0.0618,0.0687,0.0731,0.075,0.076,0.0807,0.0794,0.0791,0.0789,0.0829,0.0829,0.0828,0.0837,0.0837,0.0837,0,0,0.0034,0.0099,0.0112,0.0163,0.0229,0.029,0.0293,0.0384,0.0415,0.0472,0.0524,0.0571,0.0654,0.0708,0.0745,0.075,0.0785,0.0753,0.0725,0.0763,0.0763,0.0763,0.0793,0.0796,0.0752,0.0752,0.0752,0,-0.0001,0.0051,0.0123,0.0146,0.0183,0.0262,0.0281,0.0336,0.0429,0.046,0.0468,0.0597,0.0647,0.0719,0.0713,0.0743,0.076,0.0738,0.0758,0.0758,0.0759,0.0791,0.0795,0.0749,0.0749,0.075,0.075,0,-0.0014,0.0021,0.003,0.0094,0.0139,0.0167,0.0257,0.0294,0.0339,0.0405,0.0474,0.0553,0.0626,0.0648,0.0684,0.0718,0.0727,0.0747,0.0767,0.0755,0.0789,0.0794,0.0745,0.0746,0.0747,0.0748,0,0,-0.0075,0.0004,0.0003,0.0024,0.0112,0.0152,0.0201,0.0283,0.0316,0.0394,0.0452,0.0535,0.0571,0.0613,0.0666,0.0699,0.0719,0.0711,0.0714,0.0737,0.0789,0.078,0.0785,0.0734,0.0734,0.0735,0.0808,0,-0.0114,-0.0089,-0.0032,-0.0004,0.0022,0.0108,0.0155,0.0233,0.0306,0.038,0.0467,0.0532,0.0562,0.0586,0.0626,0.071,0.073,0.0696,0.0801,0.0804,0.0795,0.079,0.0667,0.072,0.0813,0.0814,0.0815,0,-0.0153,-0.0124,-0.0112,-0.0038,-0.0022,0.0001,0.009,0.014,0.0261,0.0313,0.0394,0.0475,0.056,0.057,0.0691,0.0663,0.0704,0.0759,0.0763,0.0777,0.0805,0.0749,0.0727,0.0824,0.0824,0.0823,0.0822,0,-0.0233,-0.0179,-0.0173,-0.0147,-0.0056,-0.0046,-0.0003,0.0104,0.0159,0.026,0.0314,0.0431,0.0497,0.0572,0.0689,0.0682,0.0815,0.0829,0.0859,0.086,0.0787,0.078,0.0878,0.0878,0.0878,0.0878,0.0878,0,-0.0284,-0.0282,-0.022,-0.0215,-0.0203,-0.0127,-0.0099,-0.0036,0.0068,0.0144,0.0253,0.0343,0.0494,0.0609,0.0685,0.0796,0.0812,0.0851,0.0877,0.0765,0.0756,0.0873,0.0872,0.0881,0.088,0.0879,0.0879,0,-0.0376,-0.0333,-0.0325,-0.0261,-0.0245,-0.0248,-0.0165,-0.0124,-0.0041,0.0061,0.0092,0.0285,0.0427,0.0576,0.0729,0.0794,0.0897,0.0918,0.0775,0.0782,0.0915,0.091,0.0967,0.0967,0.0968,0.0968,0.0968,0,-0.0422,-0.0429,-0.0383,-0.0374,-0.0357,-0.0336,-0.03,-0.0202,-0.0137,0.004,0.0099,0.0263,0.0388,0.0612,0.0738,0.0865,0.0903,0.0835,0.0801,0.0904,0.0924,0.0919,0.0913,0.0685,0.0683,0.0681,0.068,0,-0.0505,-0.0498,-0.0482,-0.0462,-0.0444,-0.0395,-0.0338,-0.0293,-0.0151,-0.0063,0.0091,0.0189,0.0395,0.0512,0.0674,0.0736,0.081,0.0804,0.0955,0.0682,0.0644,0.0662,0.0665,0.0664,0.0665,0.0667,0.0667,0.0668,-0.0575,-0.0583,-0.0556,-0.0537,-0.0503,-0.044,-0.0399,-0.0308,-0.0211,-0.007,0.003,0.0149,0.025,0.0447,0.056,0.0691,0.0732,0.0731,0.0733,0.0739,0.0693,0.0658,0.0672,0.0673,0.0675,0.0676,0.0677,0,-0.0634,-0.0624,-0.0616,-0.0567,-0.0529,-0.0496,-0.0393,-0.0345,-0.0237,-0.0128,-0.0037,0.0025,0.0137,0.03,0.0466,0.0566,0.0546,0.0582,0.0519,0.0532,0.0544,0.0488,0.0413,0.0414,0.0414,0.0414,0,0,-0.0663,-0.0665,-0.0645,-0.059,-0.0554,-0.0475,-0.0417,-0.0363,-0.0274,-0.0192,-0.0114,-0.008,0.0115,0.0158,0.0259,0.0365,0.0431,0.0362,0.0548,0.0469,0.0481,0.059,0.0513,0,0,0,0,0]}],[{"header":{"parameterUnit":"m.s-1","parameterCategory":2,"la1":30.2991,"la2":30.254,"lo1":-89.0895,"lo2":-89.0444,"dy":0.0017,"dx":0.0017,"nx":28,"ny":28,"refTime":"2025-06-20T21:00:00:Z","depth":"4","parameterNumber":2,"parameterNumberName":"U-component_of_CURRENTS"},"data":[0,0,0,0,0,0,0,0,0,0,0,0,0,0,0,0,0,0,0,0,0,0,0,0,0,0,0,0,0,0,0,0,0,0,0,0,0,0,0,0,0,0,0,0,0,0,0,0,0,0,0,0,0,0,0,0,0,0,-0.082,-0.0821,0,-0.0864,-0.0865,-0.0865,-0.0891,-0.0892,-0.0892,-0.0893,-0.0988,-0.099,-0.0992,0,0,0,0,0,0,0,0,0,0,0,0,0,-0.0808,-0.0807,-0.082,-0.0821,-0.0822,-0.0864,-0.0865,-0.0865,-0.0891,-0.0892,-0.0892,-0.0893,-0.0987,-0.0989,-0.0992,0,0,0,0,0,0,0,0,0,0,0,0,0,-0.0824,-0.0807,-0.082,-0.0844,-0.0846,-0.0864,-0.0865,-0.0865,-0.0891,-0.0892,-0.0893,-0.0893,-0.0986,-0.0989,-0.0992,-0.0995,0,0,-0.1001,-0.1003,0,0,0,0,0,0,0,0,-0.0823,-0.0824,-0.0839,-0.0842,-0.0845,-0.0877,-0.0895,-0.0912,-0.0891,-0.0869,-0.0893,-0.0894,-0.0958,-0.0963,-0.0962,-0.0999,-0.1003,-0.1002,-0.1003,-0.1005,-0.1006,0,0,0,0,0,0,0,-0.0822,-0.0823,-0.0833,-0.084,-0.0844,-0.087,-0.0872,-0.0898,-0.0906,-0.0871,-0.0874,-0.0886,-0.0959,-0.0959,-0.0965,-0.1004,-0.1002,-0.1004,-0.1006,-0.1007,-0.109,-0.1091,0,0,0,0,0,0,-0.0822,-0.0821,-0.0832,-0.0835,-0.0841,-0.0869,-0.0872,-0.0862,-0.0904,-0.0913,-0.0886,-0.0888,-0.0954,-0.0961,-0.0969,-0.1048,-0.1005,-0.1008,-0.1009,-0.109,-0.109,-0.1091,0,0,0,0,0,0,-0.0821,-0.0821,-0.083,-0.0834,-0.0838,-0.0869,-0.0858,-0.0863,-0.0885,-0.0916,-0.0924,-0.0906,-0.0955,-0.0964,-0.0989,-0.105,-0.1009,-0.1012,-0.1089,-0.109,-0.109,-0.1161,0,0,0,0,0,0,-0.082,-0.082,-0.0809,-0.0833,-0.0838,-0.085,-0.0858,-0.0863,-0.0892,-0.0896,-0.0936,-0.0944,-0.0956,-0.0984,-0.0992,-0.1053,-0.1014,-0.1089,-0.109,-0.109,-0.1158,-0.1164,-0.1169,0,0,0,0,0,-0.0819,-0.0823,-0.0808,-0.081,-0.0822,-0.0851,-0.0855,-0.0877,-0.0893,-0.09,-0.0916,-0.0944,-0.0995,-0.0986,-0.0995,-0.1059,-0.1089,-0.1089,-0.109,-0.1156,-0.1163,-0.1169,0,0,0,0,0,0,-0.0822,-0.0827,-0.0811,-0.0815,-0.0829,-0.0857,-0.0873,-0.0888,-0.0906,-0.0922,-0.0939,-0.0948,-0.0998,-0.1001,-0.0991,-0.1079,-0.1051,-0.1054,-0.1098,-0.1105,-0.111,-0.1083,-0.1017,0,0,0,0,0,-0.0811,-0.081,-0.0817,-0.0822,-0.0828,-0.0848,-0.0863,-0.0887,-0.091,-0.092,-0.0934,-0.0962,-0.1005,-0.103,-0.1051,-0.1095,-0.1073,-0.1141,-0.1146,-0.1151,-0.1132,-0.1172,-0.118,-0.1094,-0.1094,-0.1093,0,0,-0.0816,-0.0819,-0.0818,-0.0822,-0.0834,-0.0842,-0.0859,-0.0902,-0.0923,-0.093,-0.095,-0.098,-0.1015,-0.1065,-0.109,-0.1081,-0.1154,-0.1152,-0.1157,-0.1134,-0.1174,-0.1183,-0.119,-0.1094,-0.1094,-0.1094,0,0,-0.0829,-0.0824,-0.0819,-0.0829,-0.0855,-0.0867,-0.0882,-0.0907,-0.0931,-0.096,-0.0978,-0.1007,-0.1068,-0.1085,-0.1115,-0.1151,-0.1178,-0.1202,-0.1221,-0.1262,-0.127,-0.1277,-0.1221,-0.1223,-0.1211,-0.1211,-0.1211,0,-0.0829,-0.0821,-0.0827,-0.0829,-0.0846,-0.0877,-0.0888,-0.0915,-0.0945,-0.0952,-0.0976,-0.1042,-0.1068,-0.1131,-0.1156,-0.1166,-0.1179,-0.1205,-0.1272,-0.1278,-0.1284,-0.1226,-0.1226,-0.1215,-0.1214,-0.1214,-0.1213,0,-0.083,-0.0828,-0.084,-0.0834,-0.0851,-0.0884,-0.0913,-0.0932,-0.097,-0.0979,-0.1042,-0.1077,-0.1117,-0.1153,-0.118,-0.1252,-0.124,-0.1274,-0.1261,-0.1297,-0.1232,-0.1232,-0.122,-0.1218,-0.1217,-0.1216,0,0,-0.0822,-0.0832,-0.0837,-0.0833,-0.0867,-0.0884,-0.092,-0.0941,-0.096,-0.1008,-0.1032,-0.1116,-0.1144,-0.1174,-0.1228,-0.1266,-0.1308,-0.1312,-0.1313,-0.1262,-0.1363,-0.1277,-0.1267,-0.1405,-0.1406,-0.1407,-0.1287,0,-0.0817,-0.082,-0.0834,-0.0848,-0.0849,-0.0888,-0.0914,-0.0943,-0.0977,-0.0995,-0.1059,-0.1109,-0.1161,-0.1219,-0.127,-0.1324,-0.1319,-0.1333,-0.1327,-0.1323,-0.1252,-0.1268,-0.1411,-0.1286,-0.1286,-0.1286,-0.1286,0,-0.0802,-0.0809,-0.0819,-0.0846,-0.0852,-0.087,-0.091,-0.0943,-0.0976,-0.1011,-0.1069,-0.1116,-0.1195,-0.1234,-0.1317,-0.1355,-0.1349,-0.1358,-0.1356,-0.1248,-0.1238,-0.1251,-0.1284,-0.1284,-0.1285,-0.1285,-0.1285,0,-0.0782,-0.08,-0.081,-0.0821,-0.0852,-0.0875,-0.0905,-0.0936,-0.0954,-0.1024,-0.1039,-0.1141,-0.1196,-0.1268,-0.1303,-0.1351,-0.1342,-0.1397,-0.1268,-0.1257,-0.134,-0.1335,-0.1384,-0.1384,-0.1384,-0.1384,-0.1385,0,-0.0767,-0.0779,-0.0803,-0.081,-0.0828,-0.0867,-0.0894,-0.093,-0.0967,-0.0961,-0.1063,-0.1079,-0.1226,-0.1242,-0.1285,-0.1267,-0.1327,-0.1244,-0.1237,-0.1363,-0.1362,-0.1336,-0.1332,-0.138,-0.1381,-0.1382,-0.1383,0,-0.074,-0.0759,-0.0768,-0.0804,-0.0814,-0.0834,-0.0874,-0.088,-0.0942,-0.0943,-0.0974,-0.1041,-0.1093,-0.1145,-0.1202,-0.1206,-0.1208,-0.1151,-0.1198,-0.1198,-0.1088,-0.1089,-0.1031,-0.1027,-0.1024,-0.1021,-0.1019,0,-0.0726,-0.0727,-0.0752,-0.0749,-0.0768,-0.0799,-0.0808,-0.0866,-0.0862,-0.0898,-0.0881,-0.0923,-0.0966,-0.0946,-0.1041,-0.1058,-0.1052,-0.1018,-0.1131,-0.1061,-0.106,-0.1066,-0.1071,-0.1014,-0.1013,-0.1012,-0.1012,0,-0.0698,-0.0712,-0.0719,-0.0712,-0.0718,-0.0715,-0.0733,-0.0718,-0.0767,-0.0813,-0.0781,-0.0802,-0.0804,-0.0878,-0.0863,-0.089,-0.1066,-0.0987,-0.0995,-0.1101,-0.104,-0.1043,-0.1052,-0.1001,-0.1002,-0.1003,-0.1004,0,-0.0681,-0.0673,-0.0678,-0.0666,-0.066,-0.0624,-0.0649,-0.0636,-0.0643,-0.0681,-0.0653,-0.0707,-0.0756,-0.0778,-0.0783,-0.0802,-0.0832,-0.0846,-0.0863,-0.0876,-0.0897,-0.0802,-0.0664,0,0,0,0,0,-0.0653,-0.0635,-0.0624,-0.0596,-0.0582,-0.0574,-0.0583,-0.0608,-0.0638,-0.0588,-0.0621,-0.0621,-0.0647,-0.068,-0.0679,-0.0746,-0.0846,-0.0745,-0.0873,-0.0941,-0.0953,-0.1002,0,0,0,0,0,0,-0.0631,-0.0626,-0.0609,-0.0534,-0.0495,-0.047,-0.0472,-0.0496,-0.0481,-0.0521,-0.054,-0.0581,-0.0622,-0.0629,-0.066,-0.0673,-0.0745,-0.0781,-0.078,-0.0934,-0.0945,-0.0955,-0.1009,0,0,0,0,0]},{"header":{"parameterUnit":"m.s-1","parameterCategory":2,"la1":30.2991,"la2":30.254,"lo1":-89.0895,"lo2":-89.0444,"dy":0.0017,"dx":0.0017,"nx":28,"ny":28,"refTime":"2025-06-20T21:00:00:Z","depth":"4","parameterNumber":3,"parameterNumberName":"V-component_of_CURRENTS"},"data":[0,0,0,0,0,0,0,0,0,0,0,0,0,0,0,0,0,0,0,0,0,0,0,0,0,0,0,0,0,0,0,0,0,0,0,0,0,0,0,0,0,0,0,0,0,0,0,0,0,0,0,0,0,0,0,0,0,0,-0.0463,-0.0463,0,-0.0466,-0.0466,-0.0466,-0.0462,-0.0462,-0.0462,-0.0462,-0.0489,-0.049,-0.049,0,0,0,0,0,0,0,0,0,0,0,0,0,-0.0419,-0.0419,-0.0463,-0.0463,-0.0464,-0.0466,-0.0466,-0.0466,-0.0462,-0.0462,-0.0462,-0.0462,-0.0489,-0.049,-0.0491,0,0,0,0,0,0,0,0,0,0,0,0,0,-0.0429,-0.042,-0.0463,-0.0464,-0.0464,-0.0466,-0.0466,-0.0466,-0.0462,-0.0462,-0.0462,-0.0462,-0.0489,-0.049,-0.0491,-0.0495,0,0,-0.0494,-0.0494,0,0,0,0,0,0,0,0,-0.0429,-0.0431,-0.0463,-0.0464,-0.0464,-0.0466,-0.046,-0.0477,-0.0462,-0.046,-0.0462,-0.0462,-0.0485,-0.0486,-0.0483,-0.0496,-0.0497,-0.0494,-0.0494,-0.0495,-0.0495,0,0,0,0,0,0,0,-0.0428,-0.043,-0.0462,-0.0464,-0.0464,-0.0452,-0.0454,-0.0463,-0.0471,-0.046,-0.0461,-0.0465,-0.0485,-0.0482,-0.0484,-0.0497,-0.0494,-0.0495,-0.0495,-0.0496,-0.0524,-0.0525,0,0,0,0,0,0,-0.0434,-0.043,-0.0462,-0.0462,-0.0449,-0.0453,-0.0455,-0.0463,-0.047,-0.0472,-0.0465,-0.0465,-0.048,-0.0483,-0.0485,-0.0517,-0.0495,-0.0496,-0.0496,-0.0524,-0.0524,-0.0525,0,0,0,0,0,0,-0.0433,-0.0437,-0.0462,-0.0448,-0.045,-0.0454,-0.0463,-0.0463,-0.0472,-0.0473,-0.0475,-0.0475,-0.048,-0.0483,-0.0514,-0.0517,-0.0496,-0.0497,-0.0524,-0.0524,-0.0525,-0.0564,0,0,0,0,0,0,-0.0432,-0.0437,-0.0449,-0.0448,-0.0451,-0.047,-0.0464,-0.0463,-0.0474,-0.0474,-0.0482,-0.0484,-0.0481,-0.0513,-0.0515,-0.0518,-0.0498,-0.0524,-0.0524,-0.0524,-0.0562,-0.0565,-0.0568,0,0,0,0,0,-0.0431,-0.0443,-0.045,-0.0454,-0.0467,-0.0471,-0.0471,-0.0472,-0.0475,-0.0479,-0.0496,-0.0485,-0.0515,-0.0515,-0.0517,-0.052,-0.0524,-0.0524,-0.0524,-0.0561,-0.0565,-0.0568,0,0,0,0,0,0,-0.043,-0.0444,-0.0451,-0.0468,-0.0475,-0.0471,-0.0476,-0.048,-0.0494,-0.05,-0.0502,-0.0505,-0.0528,-0.052,-0.0519,-0.0527,-0.0511,-0.0512,-0.0538,-0.0542,-0.0545,-0.0555,-0.0499,0,0,0,0,0,-0.0437,-0.045,-0.046,-0.0474,-0.0478,-0.0481,-0.0485,-0.0488,-0.0499,-0.0504,-0.0514,-0.052,-0.0529,-0.0535,-0.054,-0.0555,-0.0535,-0.0552,-0.0555,-0.0557,-0.0566,-0.0539,-0.054,-0.0526,-0.0526,-0.0526,0,0,-0.0441,-0.0451,-0.0459,-0.0475,-0.0478,-0.0489,-0.0483,-0.0493,-0.0513,-0.0507,-0.0539,-0.0538,-0.0536,-0.0551,-0.0558,-0.0548,-0.055,-0.0558,-0.056,-0.0568,-0.0539,-0.054,-0.0542,-0.0526,-0.0526,-0.0526,0,0,-0.0448,-0.0463,-0.0474,-0.0482,-0.0495,-0.05,-0.0508,-0.0517,-0.0532,-0.0562,-0.0559,-0.0574,-0.0582,-0.0586,-0.0587,-0.0611,-0.057,-0.0593,-0.0615,-0.0588,-0.0589,-0.059,-0.0563,-0.0561,-0.0589,-0.059,-0.059,0,-0.0453,-0.0471,-0.0477,-0.0489,-0.0503,-0.0509,-0.0526,-0.0541,-0.0563,-0.0579,-0.0578,-0.0597,-0.0603,-0.062,-0.0624,-0.0621,-0.0587,-0.0605,-0.0592,-0.0593,-0.0593,-0.0565,-0.0562,-0.0591,-0.0591,-0.0591,-0.0591,0,-0.0463,-0.0483,-0.0488,-0.0511,-0.0526,-0.0539,-0.0564,-0.0589,-0.0608,-0.0615,-0.0645,-0.0653,-0.0662,-0.0655,-0.0651,-0.0648,-0.0618,-0.0603,-0.0585,-0.0596,-0.0567,-0.0563,-0.0594,-0.0594,-0.0593,-0.0593,0,0,-0.0466,-0.0491,-0.0496,-0.0514,-0.0541,-0.0555,-0.0598,-0.0631,-0.066,-0.0674,-0.0708,-0.0719,-0.0711,-0.0712,-0.07,-0.0677,-0.0655,-0.0635,-0.0633,-0.0613,-0.058,-0.0496,-0.0484,-0.0621,-0.062,-0.062,-0.0558,0,-0.0475,-0.0499,-0.0517,-0.0552,-0.0569,-0.0599,-0.0639,-0.0672,-0.0697,-0.0729,-0.0737,-0.076,-0.0734,-0.0742,-0.0716,-0.0671,-0.0647,-0.0673,-0.0569,-0.0567,-0.0494,-0.0478,-0.0619,-0.0555,-0.0554,-0.0554,-0.0553,0,-0.0486,-0.0501,-0.0533,-0.0582,-0.0594,-0.0622,-0.0687,-0.0721,-0.0763,-0.0787,-0.08,-0.08,-0.0795,-0.0772,-0.0696,-0.0702,-0.0649,-0.0608,-0.0604,-0.0512,-0.0476,-0.0541,-0.0546,-0.0547,-0.0547,-0.0548,-0.0548,0,-0.0485,-0.0522,-0.0549,-0.0562,-0.0613,-0.0649,-0.0684,-0.0734,-0.0768,-0.0822,-0.0835,-0.0832,-0.0827,-0.0763,-0.0676,-0.0681,-0.0572,-0.0574,-0.0453,-0.0447,-0.0526,-0.0526,-0.0525,-0.0525,-0.0525,-0.0525,-0.0525,0,-0.0492,-0.0518,-0.0552,-0.0567,-0.0619,-0.0654,-0.0712,-0.0758,-0.0804,-0.0825,-0.0854,-0.0856,-0.0817,-0.075,-0.0679,-0.0535,-0.057,-0.0453,-0.0421,-0.0544,-0.0546,-0.0523,-0.0524,-0.0523,-0.0523,-0.0524,-0.0524,0,-0.0493,-0.051,-0.0547,-0.0598,-0.062,-0.0659,-0.0728,-0.0762,-0.0805,-0.0836,-0.0854,-0.0859,-0.0769,-0.07,-0.0597,-0.0523,-0.0417,-0.0362,-0.0492,-0.0469,-0.0317,-0.0321,-0.0237,-0.0233,-0.023,-0.0228,-0.0226,0,-0.0496,-0.051,-0.0564,-0.0592,-0.0619,-0.0674,-0.0715,-0.0771,-0.0791,-0.0817,-0.0817,-0.0769,-0.075,-0.0544,-0.0478,-0.0335,-0.0312,-0.0269,-0.0306,-0.0308,-0.0286,-0.0295,-0.0302,-0.0221,-0.022,-0.0219,-0.0218,0,-0.0501,-0.0521,-0.0548,-0.0598,-0.0642,-0.069,-0.0736,-0.0744,-0.0787,-0.0813,-0.0771,-0.0706,-0.0597,-0.0497,-0.0377,-0.0279,-0.0307,-0.0237,-0.0244,-0.0279,-0.0288,-0.0271,-0.0282,-0.0208,-0.0209,-0.021,-0.0211,0,-0.0507,-0.0526,-0.0559,-0.0603,-0.0656,-0.0691,-0.0719,-0.0723,-0.0742,-0.0748,-0.0722,-0.0651,-0.0622,-0.0463,-0.035,-0.0243,-0.0229,-0.0214,-0.0222,-0.0232,-0.0245,-0.0256,-0.0132,0,0,0,0,0,-0.0509,-0.0526,-0.0565,-0.0613,-0.0661,-0.0692,-0.0727,-0.0743,-0.0754,-0.0711,-0.0716,-0.0617,-0.0465,-0.0419,-0.0292,-0.0297,-0.0214,-0.0146,-0.0202,-0.015,-0.0162,-0.0169,0,0,0,0,0,0,-0.0513,-0.0544,-0.0556,-0.0606,-0.0639,-0.0693,-0.0714,-0.0725,-0.0692,-0.069,-0.0609,-0.0578,-0.0431,-0.0533,-0.0289,-0.026,-0.0275,-0.0082,-0.0079,-0.0143,-0.0154,-0.0164,-0.0175,0,0,0,0,0]}]]